Time,TemperatureF,DewpointF,PressureIn,WindDirection,WindDirectionDegrees,WindSpeedMPH,WindSpeedGustMPH,Humidity,HourlyPrecipIn,Conditions,Clouds,dailyrainin,SoftwareType,DateUTC
2013-01-24 00:19:00,19.7,10.0,30.09,NW,311,0.0,-999.0,66,-99.99,,,0.00,weatherlink.com 1.10,2013-01-24 05:19:00,
2013-01-24 00:34:00,18.8,11.0,30.08,NNW,343,0.0,-999.0,72,-99.99,,,0.00,weatherlink.com 1.10,2013-01-24 05:34:00,
2013-01-24 00:49:00,18.3,12.0,30.08,NNE,24,0.0,-999.0,77,-99.99,,,0.00,weatherlink.com 1.10,2013-01-24 05:49:00,
2013-01-24 01:04:00,18.0,13.0,30.08,NE,51,2.0,-999.0,80,-99.99,,,0.00,weatherlink.com 1.10,2013-01-24 06:04:00,
2013-01-24 01:19:00,17.8,13.0,30.07,NE,52,0.0,-999.0,82,-99.99,,,0.00,weatherlink.com 1.10,2013-01-24 06:19:00,
2013-01-24 01:35:00,17.8,14.0,30.06,NE,53,0.0,-999.0,83,-99.99,,,0.00,weatherlink.com 1.10,2013-01-24 06:35:00,
2013-01-24 01:50:00,17.7,14.0,30.07,ENE,72,0.0,-999.0,84,-99.99,,,0.00,weatherlink.com 1.10,2013-01-24 06:50:00,
2013-01-24 02:05:00,17.7,14.0,30.06,ENE,72,0.0,-999.0,85,-99.99,,,0.00,weatherlink.com 1.10,2013-01-24 07:05:00,
2013-01-24 02:20:00,17.5,14.0,30.06,ENE,76,0.0,-999.0,85,-99.99,,,0.00,weatherlink.com 1.10,2013-01-24 07:20:00,
2013-01-24 02:35:00,17.3,14.0,30.06,ENE,74,0.0,-999.0,85,-99.99,,,0.00,weatherlink.com 1.10,2013-01-24 07:35:00,
2013-01-24 02:50:00,17.3,14.0,30.06,East,94,0.0,-999.0,85,-99.99,,,0.00,weatherlink.com 1.10,2013-01-24 07:50:00,
2013-01-24 03:05:00,17.3,14.0,30.06,East,94,0.0,-999.0,86,-99.99,,,0.00,weatherlink.com 1.10,2013-01-24 08:05:00,
2013-01-24 03:20:00,17.2,14.0,30.06,East,92,0.0,-999.0,86,-99.99,,,0.00,weatherlink.com 1.10,2013-01-24 08:20:00,
2013-01-24 03:35:00,17.0,14.0,30.06,ENE,67,0.0,-999.0,86,-99.99,,,0.00,weatherlink.com 1.10,2013-01-24 08:35:00,
2013-01-24 03:50:00,17.0,14.0,30.06,ENE,67,2.0,-999.0,86,-99.99,,,0.00,weatherlink.com 1.10,2013-01-24 08:50:00,
2013-01-24 04:05:00,17.0,14.0,30.07,NE,37,0.0,-999.0,86,-99.99,,,0.00,weatherlink.com 1.10,2013-01-24 09:05:00,
2013-01-24 04:20:00,17.0,14.0,30.07,NE,37,0.0,-999.0,86,-99.99,,,0.00,weatherlink.com 1.10,2013-01-24 09:20:00,
2013-01-24 04:35:00,17.0,14.0,30.07,NE,37,1.0,-999.0,86,-99.99,,,0.00,weatherlink.com 1.10,2013-01-24 09:35:00,
2013-01-24 04:50:00,16.9,13.0,30.08,NNE,25,1.0,-999.0,86,-99.99,,,0.00,weatherlink.com 1.10,2013-01-24 09:50:00,
2013-01-24 05:05:00,16.9,13.0,30.09,NNE,25,0.0,-999.0,85,-99.99,,,0.00,weatherlink.com 1.10,2013-01-24 10:05:00,
2013-01-24 05:20:00,16.9,13.0,30.10,North,10,4.0,-999.0,85,-99.99,,,0.00,weatherlink.com 1.10,2013-01-24 10:20:00,
2013-01-24 05:35:00,16.7,13.0,30.11,NNE,18,2.0,-999.0,85,-99.99,,,0.00,weatherlink.com 1.10,2013-01-24 10:35:00,
2013-01-24 05:50:00,16.5,13.0,30.11,North,11,4.0,-999.0,85,-99.99,,,0.00,weatherlink.com 1.10,2013-01-24 10:50:00,
2013-01-24 06:05:00,16.1,12.0,30.12,NE,40,0.0,-999.0,84,-99.99,,,0.00,weatherlink.com 1.10,2013-01-24 11:05:00,
2013-01-24 06:24:00,15.9,12.0,30.14,North,1,2.0,-999.0,84,-99.99,,,0.00,weatherlink.com 1.10,2013-01-24 11:24:00,
2013-01-24 06:36:00,15.7,12.0,30.16,NNE,13,0.0,-999.0,84,-99.99,,,0.00,weatherlink.com 1.10,2013-01-24 11:36:00,
2013-01-24 06:50:00,15.7,12.0,30.17,NNE,14,2.0,-999.0,84,-99.99,,,0.00,weatherlink.com 1.10,2013-01-24 11:50:00,
2013-01-24 07:05:00,15.6,11.0,30.18,NNE,14,1.0,-999.0,83,-99.99,,,0.00,weatherlink.com 1.10,2013-01-24 12:05:00,
2013-01-24 07:20:00,15.4,11.0,30.19,NNE,23,0.0,-999.0,82,-99.99,,,0.00,weatherlink.com 1.10,2013-01-24 12:20:00,
2013-01-24 07:35:00,15.1,11.0,30.20,NNE,23,2.0,-999.0,82,-99.99,,,0.00,weatherlink.com 1.10,2013-01-24 12:35:00,
2013-01-24 07:51:00,14.9,10.0,30.21,NNE,25,2.0,-999.0,82,-99.99,,,0.00,weatherlink.com 1.10,2013-01-24 12:51:00,
2013-01-24 08:05:00,15.1,11.0,30.23,North,11,2.0,-999.0,83,-99.99,,,0.00,weatherlink.com 1.10,2013-01-24 13:05:00,
2013-01-24 08:21:00,15.4,11.0,30.24,NNE,17,0.0,-999.0,83,-99.99,,,0.00,weatherlink.com 1.10,2013-01-24 13:21:00,
2013-01-24 08:35:00,15.4,11.0,30.25,NNE,17,0.0,-999.0,83,-99.99,,,0.00,weatherlink.com 1.10,2013-01-24 13:35:00,
2013-01-24 08:51:00,15.9,12.0,30.26,NNE,17,0.0,-999.0,83,-99.99,,,0.00,weatherlink.com 1.10,2013-01-24 13:51:00,
2013-01-24 09:05:00,16.4,12.0,30.27,NNE,16,0.0,-999.0,82,-99.99,,,0.00,weatherlink.com 1.10,2013-01-24 14:05:00,
2013-01-24 09:20:00,16.7,12.0,30.28,NNE,16,0.0,-999.0,81,-99.99,,,0.00,weatherlink.com 1.10,2013-01-24 14:20:00,
2013-01-24 09:36:00,17.0,12.0,30.29,North,8,5.0,-999.0,81,-99.99,,,0.00,weatherlink.com 1.10,2013-01-24 14:36:00,
2013-01-24 09:51:00,17.7,13.0,30.30,North,1,5.0,-999.0,80,-99.99,,,0.00,weatherlink.com 1.10,2013-01-24 14:51:00,
2013-01-24 10:05:00,18.3,12.0,30.30,NNW,329,12.0,-999.0,76,-99.99,,,0.00,weatherlink.com 1.10,2013-01-24 15:05:00,
2013-01-24 10:20:00,19.1,12.0,30.30,NW,316,3.0,-999.0,73,-99.99,,,0.00,weatherlink.com 1.10,2013-01-24 15:20:00,
2013-01-24 10:36:00,19.9,12.0,30.31,NNW,344,12.0,-999.0,71,-99.99,,,0.00,weatherlink.com 1.10,2013-01-24 15:36:00,
2013-01-24 10:50:00,20.2,11.0,30.31,WNW,293,12.0,-999.0,67,-99.99,,,0.00,weatherlink.com 1.10,2013-01-24 15:50:00,
2013-01-24 11:05:00,20.6,11.0,30.31,NNW,327,24.0,-999.0,66,-99.99,,,0.00,weatherlink.com 1.10,2013-01-24 16:05:00,
2013-01-24 11:21:00,21.0,11.0,30.32,NNE,18,4.0,-999.0,64,-99.99,,,0.00,weatherlink.com 1.10,2013-01-24 16:21:00,
2013-01-24 11:36:00,21.3,10.0,30.33,NW,311,16.0,-999.0,62,-99.99,,,0.00,weatherlink.com 1.10,2013-01-24 16:36:00,
2013-01-24 11:51:00,22.4,10.0,30.33,NW,314,13.0,-999.0,59,-99.99,,,0.00,weatherlink.com 1.10,2013-01-24 16:51:00,
2013-01-24 12:06:00,23.2,10.0,30.34,NNW,335,7.0,-999.0,57,-99.99,,,0.00,weatherlink.com 1.10,2013-01-24 17:06:00,
2013-01-24 12:21:00,22.9,9.0,30.35,North,352,14.0,-999.0,55,-99.99,,,0.00,weatherlink.com 1.10,2013-01-24 17:21:00,
2013-01-24 12:36:00,23.6,9.0,30.34,NNW,327,11.0,-999.0,55,-99.99,,,0.00,weatherlink.com 1.10,2013-01-24 17:36:00,
2013-01-24 12:51:00,23.0,7.0,30.34,NW,311,15.0,-999.0,51,-99.99,,,0.00,weatherlink.com 1.10,2013-01-24 17:51:00,
2013-01-24 13:06:00,24.4,7.0,30.33,NW,319,14.0,-999.0,48,-99.99,,,0.00,weatherlink.com 1.10,2013-01-24 18:06:00,
2013-01-24 13:21:00,24.8,7.0,30.34,West,276,8.0,-999.0,47,-99.99,,,0.00,weatherlink.com 1.10,2013-01-24 18:21:00,
2013-01-24 13:36:00,23.6,5.0,30.34,NNW,328,19.0,-999.0,44,-99.99,,,0.00,weatherlink.com 1.10,2013-01-24 18:36:00,
2013-01-24 13:51:00,23.8,5.0,30.33,NNW,330,13.0,-999.0,44,-99.99,,,0.00,weatherlink.com 1.10,2013-01-24 18:51:00,
2013-01-24 14:06:00,24.7,4.0,30.33,WSW,257,20.0,-999.0,42,-99.99,,,0.01,weatherlink.com 1.10,2013-01-24 19:06:00,
2013-01-24 14:21:00,24.5,4.0,30.34,WNW,300,14.0,-999.0,42,-99.99,,,0.01,weatherlink.com 1.10,2013-01-24 19:21:00,
2013-01-24 14:36:00,24.5,2.0,30.36,WNW,299,8.0,-999.0,38,-99.99,,,0.01,weatherlink.com 1.10,2013-01-24 19:36:00,
2013-01-24 14:51:00,25.1,4.0,30.36,North,359,12.0,-999.0,40,-99.99,,,0.01,weatherlink.com 1.10,2013-01-24 19:51:00,
2013-01-24 15:06:00,24.7,2.0,30.37,North,355,18.0,-999.0,38,-99.99,,,0.01,weatherlink.com 1.10,2013-01-24 20:06:00,
2013-01-24 15:21:00,24.4,4.0,30.37,NNW,330,18.0,-999.0,41,-99.99,,,0.01,weatherlink.com 1.10,2013-01-24 20:21:00,
2013-01-24 15:36:00,24.2,2.0,30.38,WNW,292,13.0,-999.0,39,-99.99,,,0.01,weatherlink.com 1.10,2013-01-24 20:36:00,
2013-01-24 15:51:00,23.8,3.0,30.39,NW,314,14.0,-999.0,41,-99.99,,,0.01,weatherlink.com 1.10,2013-01-24 20:51:00,
2013-01-24 16:06:00,23.5,3.0,30.39,NNW,328,9.0,-999.0,42,-99.99,,,0.01,weatherlink.com 1.10,2013-01-24 21:06:00,
2013-01-24 16:21:00,23.2,3.0,30.41,NNW,333,12.0,-999.0,41,-99.99,,,0.01,weatherlink.com 1.10,2013-01-24 21:21:00,
2013-01-24 16:36:00,23.0,2.0,30.41,NNW,335,22.0,-999.0,41,-99.99,,,0.01,weatherlink.com 1.10,2013-01-24 21:36:00,
2013-01-24 16:51:00,22.5,2.0,30.41,NW,321,14.0,-999.0,41,-99.99,,,0.01,weatherlink.com 1.10,2013-01-24 21:51:00,
2013-01-24 17:06:00,22.1,2.0,30.42,NNW,333,12.0,-999.0,42,-99.99,,,0.01,weatherlink.com 1.10,2013-01-24 22:06:00,
2013-01-24 17:21:00,21.3,2.0,30.43,NNW,345,8.0,-999.0,44,-99.99,,,0.01,weatherlink.com 1.10,2013-01-24 22:21:00,
2013-01-24 17:36:00,20.8,2.0,30.44,NW,316,8.0,-999.0,44,-99.99,,,0.01,weatherlink.com 1.10,2013-01-24 22:36:00,
2013-01-24 17:51:00,20.2,2.0,30.44,NNW,335,1.0,-999.0,45,-99.99,,,0.01,weatherlink.com 1.10,2013-01-24 22:51:00,
2013-01-24 18:06:00,19.7,2.0,30.45,NW,311,6.0,-999.0,46,-99.99,,,0.01,weatherlink.com 1.10,2013-01-24 23:06:00,
2013-01-24 18:21:00,19.4,2.0,30.46,NW,311,0.0,-999.0,46,-99.99,,,0.01,weatherlink.com 1.10,2013-01-24 23:21:00,
2013-01-24 18:36:00,19.2,2.0,30.46,NW,321,11.0,-999.0,47,-99.99,,,0.01,weatherlink.com 1.10,2013-01-24 23:36:00,
2013-01-24 18:51:00,18.6,4.0,30.47,NW,307,3.0,-999.0,52,-99.99,,,0.01,weatherlink.com 1.10,2013-01-24 23:51:00,
2013-01-24 19:06:00,18.4,1.0,30.47,NW,313,0.0,-999.0,47,-99.99,,,0.01,weatherlink.com 1.10,2013-01-25 00:06:00,
2013-01-24 19:21:00,19.1,2.0,30.48,NW,316,14.0,-999.0,47,-99.99,,,0.01,weatherlink.com 1.10,2013-01-25 00:21:00,
2013-01-24 19:36:00,19.7,2.0,30.48,NW,323,7.0,-999.0,46,-99.99,,,0.01,weatherlink.com 1.10,2013-01-25 00:36:00,
2013-01-24 19:51:00,19.4,2.0,30.48,NW,310,7.0,-999.0,47,-99.99,,,0.01,weatherlink.com 1.10,2013-01-25 00:51:00,
2013-01-24 20:07:00,19.4,2.0,30.48,NNW,328,8.0,-999.0,47,-99.99,,,0.01,weatherlink.com 1.10,2013-01-25 01:07:00,
2013-01-24 20:21:00,19.1,2.0,30.48,NNW,330,13.0,-999.0,48,-99.99,,,0.01,weatherlink.com 1.10,2013-01-25 01:21:00,
2013-01-24 20:36:00,18.9,2.0,30.48,NNW,348,7.0,-999.0,47,-99.99,,,0.01,weatherlink.com 1.10,2013-01-25 01:36:00,
2013-01-24 20:52:00,18.6,2.0,30.47,WNW,300,4.0,-999.0,48,-99.99,,,0.01,weatherlink.com 1.10,2013-01-25 01:52:00,
2013-01-24 21:06:00,18.4,1.0,30.47,NW,323,10.0,-999.0,47,-99.99,,,0.01,weatherlink.com 1.10,2013-01-25 02:06:00,
2013-01-24 21:21:00,18.4,1.0,30.48,NW,309,12.0,-999.0,46,-99.99,,,0.01,weatherlink.com 1.10,2013-01-25 02:21:00,
2013-01-24 21:37:00,18.6,0.0,30.47,NW,325,9.0,-999.0,44,-99.99,,,0.01,weatherlink.com 1.10,2013-01-25 02:37:00,
2013-01-24 21:52:00,18.0,0.0,30.48,NNW,332,0.0,-999.0,45,-99.99,,,0.01,weatherlink.com 1.10,2013-01-25 02:52:00,
2013-01-24 22:06:00,16.9,-1.0,30.48,WNW,292,1.0,-999.0,46,-99.99,,,0.01,weatherlink.com 1.10,2013-01-25 03:06:00,
2013-01-24 22:22:00,16.7,-1.0,30.48,NW,307,4.0,-999.0,45,-99.99,,,0.01,weatherlink.com 1.10,2013-01-25 03:22:00,
2013-01-24 22:37:00,16.5,-3.0,30.48,NW,321,0.0,-999.0,43,-99.99,,,0.01,weatherlink.com 1.10,2013-01-25 03:37:00,
2013-01-24 22:52:00,16.5,-4.0,30.49,NW,314,0.0,-999.0,40,-99.99,,,0.01,weatherlink.com 1.10,2013-01-25 03:52:00,
2013-01-24 23:07:00,15.7,-3.0,30.49,NNW,340,4.0,-999.0,44,-99.99,,,0.01,weatherlink.com 1.10,2013-01-25 04:07:00,
2013-01-24 23:22:00,16.4,-2.0,30.49,NW,305,11.0,-999.0,44,-99.99,,,0.01,weatherlink.com 1.10,2013-01-25 04:22:00,
2013-01-24 23:37:00,17.0,-2.0,30.49,NNW,328,6.0,-999.0,44,-99.99,,,0.01,weatherlink.com 1.10,2013-01-25 04:37:00,
2013-01-24 23:52:00,16.9,-2.0,30.49,NNW,327,12.0,-999.0,44,-99.99,,,0.01,weatherlink.com 1.10,2013-01-25 04:52:00,